COSMOS 2251 DEB

Satellite information

Favourite Embed

Satellite Type and Status

DEBRISIN ORBIT

Key statistics

Satellite COSMOS 2251 DEB at a glance.

Uptime

11812

Days in orbit

Revolutions

≈ 14.2

Per day

Orbit

LEO

Low Earth Orbit

Inclination

74.0

Latest

Satellite identification and parameters

Extended collection of information and parameters for COSMOS 2251 DEB.

Object identification

Identified? True

Debris? True

Object name: COSMOS 2251 DEB

International designator: 1993-036VD

Object number (NORAD): 34567

Object ID (CCSDS): 34567

Country: COMMONWEALTH OF INDEPENDENT STATES (CIS)

Current information (Y/N): Y

RCS size: SMALL

Orbital parameters

Period: 101.128 minutes

Inclination: 74.0404 deg

SMA: 7190.225 km

Apoapsis: 865.496 km

Periapsis: 758.684 km

RAAN: 257.0895 deg

Eccentricy: 0.00742759

Argument of periapsis: 343.1713 deg

Mean anomaly: 84.1687 deg

Mean motion: 14.23931299 rev/day

Mean motion (dot): 0.00000863 rev/day2

B* drag term: 0.00037677607 1/REarth

Two-line elements (TLE)

Creation date: Oct. 18, 2025, 2:17 a.m.

Reference frame: TEME

Reference center: EARTH

Epoch: Oct. 18, 2025, midnight UTC

TLE line 0: 0 COSMOS 2251 DEB

TLE line 1: 1 34567U 93036VD 25291.00041101 .00000863 00000-0 37678-3 0 9993

TLE line 2: 2 34567 74.0404 257.0895 0074276 343.1713 84.1687 14.23931299863318

Live tracking on map

Real-time ground track for satellite COSMOS 2251 DEB.

In-orbit conjunctions

A list of the most updated potential collisions computed for object COSMOS 2251 DEB.

Target Orbit TCA Probability of collision Miss distance Type
FENGYUN 1C DEB SSO 2025-08-29 03:48:46 0.0003806088 326.0 (m) DEBRIS
CZ-4 DEB SSO 2025-08-11 08:13:43 0.0002218592 209.0 (m) DEBRIS
COSMOS 2360 LEO 2024-11-18 12:26:43 0.0001659443 329.0 (m) PAYLOAD

Associated space launch

Military communications satellite. Destroyed in a collision with Iridium 33.

COSMOS 2251 DEB was lifted into orbit during the mission ‘Kosmos-3M | Strela-2M 51’, on board a Kosmos-3M space rocket.

The launch took place on June 16, 1993, 4:17 a.m. from 132/1 (132L).

For more information about the launch, click the button.

Launch to space Kosmos-3M | Strela-2M 51
Kosmos-3M | Strela-2M 51

Agency: N/A

Status: Launch Successful

Launch date: June 16, 1993, 4:17 a.m. UTC

Rocket: Kosmos-3M

Launch pad: 132/1 (132L)

Location: Plesetsk Cosmodrome, Russian Federation

...

Latest news about this satellite

There are no fresh news available about this satellite. Check back as we update our databases every day.


Newsletter sign-up

Weekly statistics, charts and insights to help you stay on top of the space industry.